{"data":{"norad_id":62104,"intl_designator":"2024-220S","name":"STARLINK-33555","alt_names":[],"object_type":"PAYLOAD","status":"ACTIVE","operator":null,"country":"US","launch_date":"2024-11-25","launch_site_code":"AFETR","launch_vehicle":null,"mission":null,"orbit_class":"UNKNOWN","rcs_meters":null,"size_class":null,"mass_kg":null,"dimensions":null,"purposes":["comms"],"wikipedia_slug":null,"has_3d_model":false,"image_url":null,"decayed_at":null,"tle_current":{"epoch":"2026-09-21T11:35:42.874368Z","epoch_age_seconds":96906,"freshness":"FRESH","line1":"1 62104U 24220S   26264.48313512  .00016424  00000+0  60480-3 0  9997","line2":"2 62104  43.0019 179.9427 0000834  28.7528 331.3370 15.27592472103107","mean_motion":15.27592472,"eccentricity":8.34e-5,"inclination_deg":43.0019,"raan_deg":179.9427,"arg_perigee_deg":28.7528,"mean_anomaly_deg":331.337,"bstar":0.0006048,"rev_number":10310,"period_min":94.265979074555,"perigee_km":482.43953083316,"apogee_km":483.58397044477,"semimajor_km":6861.148750639,"source":"CELESTRAK","updated_at":"2026-09-22T09:00:49.499410Z"}}}